TimePDT,TemperatureF,Dew PointF,Humidity,Sea Level PressureIn,VisibilityMPH,Wind Direction,Wind SpeedMPH,Gust SpeedMPH,PrecipitationIn,Events,Conditions,WindDirDegrees,DateUTC
12:53 AM,50.0,46.9,89,29.81,6.0,South,6.9,-,0.01,Rain,Light Rain,170,2012-11-01 07:53:00
1:53 AM,48.0,46.9,96,29.81,9.0,SSE,8.1,-,0.01,,Scattered Clouds,150,2012-11-01 08:53:00
2:53 AM,46.9,45.0,93,29.82,10.0,SSE,8.1,-,N/A,,Partly Cloudy,160,2012-11-01 09:53:00
3:53 AM,46.0,44.1,93,29.81,10.0,SSE,4.6,-,N/A,,Partly Cloudy,150,2012-11-01 10:53:00
4:53 AM,45.0,43.0,93,29.82,10.0,SSE,4.6,-,N/A,,Partly Cloudy,160,2012-11-01 11:53:00
5:53 AM,46.0,43.0,89,29.82,10.0,SSE,5.8,-,N/A,,Overcast,160,2012-11-01 12:53:00
6:53 AM,46.0,42.1,86,29.83,10.0,SSE,6.9,-,N/A,,Mostly Cloudy,160,2012-11-01 13:53:00
7:53 AM,48.0,44.1,86,29.85,10.0,SSW,9.2,-,0.00,Rain,Light Rain,210,2012-11-01 14:53:00
8:41 AM,46.4,44.6,93,29.86,4.0,SSW,9.2,-,0.01,Rain,Light Rain,210,2012-11-01 15:41:00
8:53 AM,46.0,44.1,93,29.88,4.0,SSW,9.2,-,0.04,Rain,Rain,200,2012-11-01 15:53:00
9:11 AM,46.4,44.6,93,29.85,8.0,Calm,Calm,-,0.03,Rain,Light Rain,0,2012-11-01 16:11:00
9:53 AM,46.9,45.0,93,29.86,10.0,Calm,Calm,-,0.03,,Mostly Cloudy,0,2012-11-01 16:53:00
10:53 AM,48.0,46.0,93,29.87,10.0,SE,5.8,-,N/A,Fog,Patches of Fog,140,2012-11-01 17:53:00
11:53 AM,50.0,46.9,89,29.88,10.0,South,9.2,-,N/A,,Mostly Cloudy,170,2012-11-01 18:53:00
12:53 PM,53.1,45.0,74,29.86,10.0,South,9.2,-,N/A,,Mostly Cloudy,190,2012-11-01 19:53:00
1:53 PM,54.0,41.0,62,29.86,10.0,WSW,21.9,-,N/A,,Overcast,240,2012-11-01 20:53:00
2:53 PM,55.9,41.0,57,29.86,10.0,WSW,18.4,-,0.00,,Mostly Cloudy,240,2012-11-01 21:53:00
3:53 PM,52.0,39.9,63,29.90,10.0,SW,17.3,-,N/A,,Scattered Clouds,220,2012-11-01 22:53:00
4:53 PM,50.0,41.0,71,29.91,10.0,SSW,11.5,-,N/A,,Mostly Cloudy,210,2012-11-01 23:53:00
5:13 PM,50.0,41.0,71,29.91,10.0,SSW,9.2,-,N/A,,Mostly Cloudy,200,2012-11-02 00:13:00
5:53 PM,48.9,42.1,77,29.93,10.0,SSW,11.5,-,N/A,,Mostly Cloudy,200,2012-11-02 00:53:00
6:41 PM,48.2,42.8,82,29.93,10.0,SSW,10.4,-,N/A,,Overcast,200,2012-11-02 01:41:00
6:53 PM,48.9,42.1,77,29.95,10.0,SSW,10.4,-,N/A,,Overcast,210,2012-11-02 01:53:00
7:53 PM,48.0,43.0,83,29.97,10.0,SSW,10.4,-,N/A,,Mostly Cloudy,200,2012-11-02 02:53:00
8:53 PM,46.0,43.0,89,29.99,10.0,SSW,9.2,-,N/A,,Scattered Clouds,210,2012-11-02 03:53:00
9:53 PM,46.0,43.0,89,30.01,10.0,SSW,9.2,-,N/A,,Scattered Clouds,200,2012-11-02 04:53:00
10:53 PM,44.1,42.1,93,30.03,10.0,SSW,9.2,-,N/A,,Scattered Clouds,200,2012-11-02 05:53:00
11:13 PM,44.6,42.8,93,30.02,10.0,South,9.2,-,N/A,,Overcast,190,2012-11-02 06:13:00
11:29 PM,44.6,42.8,93,30.02,10.0,SSW,6.9,-,N/A,,Overcast,200,2012-11-02 06:29:00
11:53 PM,45.0,43.0,93,30.04,10.0,South,5.8,-,N/A,,Overcast,190,2012-11-02 06:53:00